Wind_Speed
0 1 3 10 10 10 9 10 10 11 11 12 13 12 10 8 5 2 2 5 5 5 7 7 7 9 11 10 11 8 14 27 11 10 1 9 6 11 5 7 12 13 16 10 12
5 1 2 4 7 11 13 12 11 12 12 13 14 13 12 9 6 3 2 2 4 3 5 6 7 11 11 8 3 19 13 18 17 16 7 5 15 9 11 15 15 18 10 13 9
6 6 1 1 4 6 8 12 16 14 15 14 15 15 13 10 8 6 6 3 1 1 2 6 7 10 12 2 3 24 6 9 4 10 11 12 13 13 9 10 18 14 18 12 9
3 7 6 3 1 2 5 6 8 10 14 18 21 20 18 17 14 10 8 6 5 2 3 6 10 10 5 2 13 14 20 10 17 13 4 6 14 17 10 12 12 24 30 17 14
2 3 6 7 6 1 3 6 7 7 7 8 10 13 18 23 20 16 13 12 9 4 4 7 12 14 8 9 13 13 8 14 16 14 14 11 8 11 21 16 16 16 20 20 20
1 2 4 5 7 9 2 5 7 7 7 8 10 13 15 16 17 17 20 21 22 13 10 9 13 12 18 7 11 10 10 10 10 13 15 10 6 18 24 19 15 14 16 21 19
2 2 3 5 7 10 5 3 3 5 5 6 6 5 2 2 9 7 7 7 9 14 16 14 12 15 19 10 11 11 10 15 6 5 14 13 8 19 25 35 20 17 19 22 21
5 4 4 4 6 8 7 4 1 3 4 3 0 2 4 6 6 5 4 4 6 8 7 7 9 10 11 7 7 6 16 21 22 24 19 9 10 22 29 26 24 26 20 26 26
9 7 6 5 6 6 8 5 3 1 2 1 1 2 1 4 5 5 4 5 8 6 7 8 8 8 9 13 13 19 22 26 14 29 12 16 7 24 24 28 25 28 28 28 29
12 10 8 8 6 5 5 5 3 2 1 2 1 3 4 4 5 6 6 8 11 10 11 10 9 8 9 13 20 12 15 10 25 21 16 6 6 30 28 31 34 28 28 26 28
14 13 11 10 8 4 3 5 4 3 2 2 1 1 2 3 4 7 9 12 12 11 10 10 9 13 20 8 13 15 16 13 25 26 29 30 11 26 27 32 30 35 23 24 30
18 17 14 11 8 4 3 3 4 3 2 2 2 1 2 3 5 6 8 9 9 9 8 1 7 14 13 16 19 19 18 16 23 16 21 21 22 25 28 31 31 43 37 26 32
20 18 15 13 10 6 4 3 3 3 2 2 4 2 1 3 6 7 7 7 8 10 6 3 15 16 6 7 13 12 15 22 16 13 14 21 28 29 29 30 37 33 24 25 31
25 22 20 17 14 11 9 6 4 3 2 1 3 2 0 3 5 6 6 5 5 6 15 9 10 20 15 16 10 13 14 20 20 23 23 22 34 26 37 41 41 42 34 17 22
28 26 24 21 18 16 13 9 7 3 4 2 3 1 2 4 7 3 4 4 4 11 11 6 9 11 14 14 21 22 18 20 21 24 29 23 35 37 34 39 38 33 38 35 37
28 31 26 24 21 19 16 13 10 7 2 8 2 3 2 5 4 6 4 4 4 12 14 9 12 8 12 16 18 21 23 22 21 21 29 25 34 36 32 33 25 30 49 30 27
22 26 30 26 22 21 19 17 15 9 1 11 14 7 4 3 4 9 6 8 6 6 3 12 17 14 18 17 22 16 19 22 25 23 24 30 35 42 41 29 33 43 42 38 33
22 22 24 30 25 22 20 21 19 13 9 7 17 9 7 8 3 10 10 11 12 11 8 12 13 19 27 32 16 26 22 20 29 36 29 19 33 31 31 44 42 43 31 39 30
20 23 23 24 30 26 23 23 14 16 10 13 10 10 11 11 11 13 14 13 13 28 23 14 22 21 15 26 19 24 23 19 26 29 32 24 23 41 52 30 26 27 34 31 25
16 21 22 24 26 32 29 21 18 13 22 13 15 12 14 15 18 13 19 26 28 4 19 23 24 22 22 23 20 17 34 24 25 35 40 32 34 42 42 25 36 25 25 21 20
18 19 21 24 26 29 32 24 22 25 26 28 23 16 24 24 31 27 25 31 11 18 22 21 23 18 17 17 20 17 18 30 37 38 38 38 30 38 36 43 41 37 37 23 30
20 23 18 24 26 25 29 29 29 27 30 25 23 25 18 7 17 11 13 19 20 25 24 25 22 19 20 20 21 18 21 26 23 35 28 37 35 38 31 32 29 19 35 24 24
17 21 17 20 25 24 24 31 35 39 32 26 27 27 24 25 20 21 18 34 28 31 24 24 23 23 20 17 16 24 26 31 31 30 26 31 35 39 29 34 28 30 30 32 28
19 21 22 22 22 29 31 31 37 39 33 31 29 30 30 27 30 27 26 37 28 30 27 23 23 25 23 24 24 25 26 30 30 30 29 28 30 29 31 29 31 28 23 21 24
23 22 18 24 24 28 30 34 36 32 34 34 35 32 26 30 25 20 25 41 39 33 26 23 23 25 24 25 26 27 28 23 25 29 30 29 28 26 29 30 27 26 25 23 21
23 22 23 26 22 22 27 29 34 29 28 31 34 33 33 33 28 32 43 39 30 15 19 21 22 25 23 23 25 22 26 22 25 27 26 28 27 25 26 29 24 23 22 22 23
22 25 26 24 23 23 21 31 30 34 25 25 26 29 30 26 40 38 44 39 33 26 25 27 24 24 21 23 22 25 25 25 25 24 21 23 22 23 21 25 19 20 20 18 8
Wind_Direction
312 265 244 239 236 229 229 233 228 225 225 214 211 215 227 242 257 278 45 76 87 122 150 140 129 125 125 139 121 297 256 288 108 144 225 277 325 340 339 2 310 293 273 278 301
66 52 244 242 240 241 238 237 237 235 228 222 220 218 221 225 239 250 272 94 89 113 155 170 160 148 141 106 27 266 257 290 229 158 140 347 330 58 341 309 298 222 303 312 308
54 37 75 231 237 236 239 242 242 240 238 235 233 229 224 223 225 250 257 247 148 166 183 200 157 143 103 159 309 270 306 315 266 47 95 333 304 283 248 262 298 283 330 294 326
63 50 57 69 95 218 228 233 236 242 248 252 252 247 242 234 234 228 250 253 258 251 233 198 161 157 99 144 267 272 324 358 331 349 30 239 279 313 304 281 277 290 306 326 309
54 48 49 49 40 323 223 224 227 233 243 255 255 250 248 248 243 245 245 250 240 231 253 221 183 172 188 181 266 249 264 351 303 293 296 292 278 257 283 287 286 290 291 298 300
30 25 27 33 23 12 288 239 239 240 254 271 272 267 257 245 238 240 254 257 253 248 262 234 222 220 194 207 257 250 275 299 297 302 291 299 263 283 276 263 258 271 279 285 286
244 314 358 14 13 14 15 324 236 227 253 295 280 275 203 156 196 208 235 241 235 235 244 232 220 211 214 211 232 270 303 315 256 243 265 300 277 270 282 283 293 291 290 289 284
245 268 309 347 1 13 24 27 323 242 280 304 312 140 135 152 166 186 189 189 174 167 198 199 201 203 218 246 253 277 268 240 254 253 256 282 295 291 283 292 299 290 282 283 281
243 255 279 310 340 3 19 24 36 15 314 308 231 140 142 169 174 196 195 184 164 158 147 159 174 194 196 239 210 221 241 260 303 303 269 309 303 285 287 288 301 301 291 282 282
235 247 261 284 314 341 3 15 15 49 39 45 110 175 209 199 205 204 206 194 183 176 178 163 149 151 252 244 252 253 266 325 337 326 324 247 297 298 306 304 289 295 296 294 289
236 241 252 269 287 307 323 1 7 37 49 49 78 106 127 151 165 160 157 170 188 189 205 207 189 259 258 322 323 318 349 352 319 325 327 317 313 294 293 291 301 297 284 295 294
239 242 248 253 259 268 295 321 358 7 23 41 18 69 125 168 163 159 158 170 176 178 135 119 217 300 272 324 351 336 319 283 251 275 286 313 319 307 281 291 298 295 295 292 291
241 241 240 242 245 245 255 280 315 348 10 80 37 49 45 174 165 160 167 183 166 85 38 16 343 316 338 356 298 300 303 315 282 276 284 296 290 293 284 282 267 283 231 279 290
247 245 245 244 245 245 245 244 256 284 304 115 10 348 144 163 171 181 179 205 194 143 265 279 340 308 319 294 306 302 283 284 296 291 287 268 278 270 277 282 278 284 289 283 277
244 246 248 245 245 245 241 235 237 235 45 301 344 307 272 196 181 195 235 245 244 205 241 259 268 274 273 287 270 274 289 284 286 299 300 295 278 286 271 287 277 300 304 313 213
244 242 243 244 243 243 240 231 226 207 125 286 239 254 208 205 185 244 216 237 247 221 222 215 237 301 305 308 297 312 311 299 300 310 293 308 304 305 294 273 255 314 314 317 220
246 245 237 239 238 239 236 231 225 207 251 277 289 233 229 199 204 213 244 232 259 260 192 324 337 347 266 259 269 294 297 305 294 297 289 291 304 311 317 308 322 304 306 307 298
241 243 245 233 233 234 232 229 227 192 141 260 273 233 241 221 246 217 239 255 303 302 265 277 278 263 259 259 292 290 291 294 302 296 303 306 309 311 297 292 296 296 280 286 292
241 240 238 239 231 228 230 231 222 179 216 235 223 229 245 225 236 267 247 251 238 261 258 237 246 236 296 304 290 297 304 290 296 287 282 271 271 277 279 256 293 285 275 289 294
244 239 237 235 231 230 231 227 212 186 215 208 217 224 230 251 243 230 244 224 255 170 268 267 269 262 258 268 281 311 287 323 290 287 298 301 290 284 278 289 299 295 233 233 286
246 245 234 233 233 230 231 227 226 219 222 215 205 205 220 227 232 215 220 268 229 241 281 271 268 266 274 287 296 284 266 274 287 292 297 301 302 307 310 283 290 285 257 226 292
243 248 238 235 232 232 228 226 228 218 233 226 223 209 247 208 292 307 334 274 257 274 277 269 273 276 287 296 302 304 282 304 287 300 295 292 309 296 300 306 300 298 307 287 220
248 249 238 239 234 233 228 226 224 234 237 233 230 215 214 222 236 234 237 259 257 269 269 271 274 281 287 298 275 284 282 290 290 306 308 300 300 300 294 304 307 302 298 272 224
244 242 244 234 232 234 230 221 233 242 238 235 233 230 226 231 234 245 253 261 272 270 269 272 277 280 287 291 289 279 290 292 300 302 307 307 304 303 301 306 303 295 303 301 299
242 247 256 216 216 229 230 238 239 240 236 232 233 234 233 243 240 238 256 256 262 243 266 273 277 279 287 291 292 292 293 303 293 299 301 302 306 307 302 308 295 300 304 303 287
248 244 237 253 247 242 253 252 242 239 233 237 236 231 232 245 246 236 242 252 256 285 275 267 271 276 284 290 293 292 303 304 302 303 304 302 309 320 319 313 288 295 302 291 291
248 243 242 243 244 243 251 239 231 235 223 240 244 236 229 241 237 258 240 248 284 284 284 282 282 281 285 288 283 292 308 303 304 304 300 306 312 318 325 334 300 312 321 319 349
Height
5884 5884 5884 5885 5885 5886 5887 5888 5890 5891 5892 5893 5894 5894 5895 5897 5899 5899 5900 5901 5902 5902 5903 5903 5904 5908 5907 5908 5908 5904 5904 5896 5890 5907 5911 5910 5911 5912 5909 5910 5908 5903 5899 5900 5900
5885 5884 5884 5883 5884 5885 5886 5887 5889 5890 5891 5892 5893 5893 5894 5896 5898 5899 5900 5901 5902 5902 5903 5903 5905 5906 5908 5909 5912 5909 5904 5906 5903 5895 5903 5908 5908 5905 5910 5907 5904 5896 5898 5900 5896
5885 5885 5884 5884 5883 5884 5884 5885 5887 5888 5889 5890 5891 5892 5893 5894 5896 5897 5899 5901 5902 5903 5903 5904 5904 5906 5908 5913 5909 5908 5890 5904 5901 5901 5902 5912 5910 5909 5909 5904 5902 5880 5888 5900 5894
5886 5886 5885 5884 5884 5883 5883 5884 5885 5885 5886 5887 5888 5889 5890 5891 5895 5895 5897 5899 5901 5902 5903 5904 5904 5906 5909 5914 5912 5908 5904 5901 5904 5904 5909 5912 5909 5906 5906 5905 5907 5896 5887 5892 5895
5887 5887 5886 5885 5884 5883 5883 5883 5883 5884 5884 5885 5885 5885 5885 5887 5891 5892 5894 5896 5899 5900 5901 5902 5904 5905 5908 5910 5912 5910 5910 5902 5907 5909 5909 5910 5909 5909 5904 5904 5902 5900 5895 5892 5893
5887 5887 5886 5886 5884 5883 5882 5882 5882 5882 5883 5883 5882 5881 5882 5883 5885 5888 5891 5892 5895 5898 5899 5900 5901 5902 5905 5907 5909 5908 5909 5910 5911 5910 5907 5906 5907 5903 5896 5895 5897 5896 5895 5891 5891
5887 5887 5887 5886 5885 5883 5882 5881 5881 5882 5882 5881 5880 5879 5879 5881 5883 5885 5888 5889 5890 5893 5895 5896 5899 5900 5901 5904 5905 5908 5910 5908 5906 5904 5904 5903 5903 5899 5896 5895 5895 5894 5892 5890 5887
5886 5886 5886 5886 5885 5884 5882 5881 5881 5881 5881 5880 5880 5879 5880 5881 5883 5885 5886 5888 5889 5891 5893 5895 5897 5899 5901 5904 5905 5907 5903 5901 5899 5898 5898 5899 5900 5896 5894 5893 5893 5887 5887 5885 5883
5885 5886 5886 5885 5885 5884 5883 5882 5881 5881 5880 5880 5880 5879 5880 5881 5883 5884 5886 5887 5889 5891 5893 5894 5895 5897 5899 5899 5898 5897 5896 5896 5896 5893 5896 5899 5895 5892 5891 5888 5889 5884 5880 5880 5879
5883 5884 5885 5885 5884 5884 5883 5882 5881 5881 5880 5880 5880 5881 5880 5881 5882 5883 5885 5887 5888 5890 5891 5893 5895 5897 5897 5896 5895 5894 5895 5898 5895 5895 5892 5888 5890 5890 5886 5884 5884 5880 5875 5873 5872
5881 5882 5883 5883 5883 5883 5883 5882 5883 5882 5880 5881 5881 5880 5880 5881 5882 5883 5884 5886 5887 5889 5891 5892 5894 5893 5890 5894 5893 5894 5893 5888 5896 5888 5887 5887 5889 5892 5887 5880 5876 5875 5871 5869 5863
5879 5880 5880 5881 5882 5883 5883 5882 5882 5882 5881 5880 5881 5880 5881 5881 5882 5883 5884 5886 5887 5888 5890 5893 5893 5893 5893 5889 5890 5892 5894 5897 5893 5896 5891 5890 5887 5887 5884 5882 5878 5871 5866 5865 5858
5875 5877 5878 5879 5880 5881 5882 5882 5881 5881 5881 5881 5881 5881 5881 5882 5883 5884 5885 5886 5887 5888 5891 5893 5891 5890 5894 5894 5895 5896 5896 5893 5892 5891 5890 5888 5886 5882 5873 5871 5862 5862 5853 5861 5854
5871 5874 5875 5876 5879 5879 5880 5881 5881 5881 5881 5882 5881 5881 5881 5881 5883 5883 5884 5886 5886 5888 5891 5893 5893 5890 5891 5894 5893 5894 5894 5890 5889 5887 5884 5884 5875 5878 5869 5864 5859 5854 5832 5847 5845
5867 5869 5871 5873 5875 5877 5879 5879 5879 5880 5880 5882 5882 5882 5881 5882 5882 5883 5883 5884 5884 5889 5892 5894 5894 5896 5894 5895 5891 5888 5886 5884 5882 5880 5877 5875 5870 5864 5861 5851 5848 5845 5846 5841 5816
5861 5864 5867 5869 5871 5874 5876 5877 5878 5880 5880 5880 5881 5881 5881 5881 5881 5883 5883 5883 5883 5885 5886 5888 5889 5890 5890 5888 5887 5884 5881 5879 5878 5877 5868 5867 5859 5857 5852 5844 5846 5840 5836 5833 5818
5856 5858 5861 5864 5868 5869 5872 5874 5877 5878 5883 5884 5880 5880 5880 5880 5880 5882 5881 5882 5883 5884 5885 5885 5887 5887 5888 5884 5884 5883 5880 5876 5875 5873 5868 5864 5856 5854 5844 5827 5835 5840 5830 5826 5828
5851 5852 5855 5859 5862 5865 5867 5870 5873 5877 5880 5883 5881 5879 5879 5880 5880 5881 5881 5881 5881 5881 5883 5886 5888 5885 5880 5877 5880 5877 5875 5873 5867 5863 5861 5865 5858 5846 5839 5840 5841 5842 5836 5830 5834
5846 5847 5850 5853 5856 5860 5862 5865 5871 5874 5879 5877 5882 5881 5881 5882 5883 5881 5881 5882 5884 5880 5877 5877 5880 5880 5875 5875 5874 5874 5871 5867 5862 5859 5853 5856 5856 5842 5827 5828 5836 5833 5830 5824 5824
5841 5842 5845 5847 5850 5854 5857 5863 5866 5868 5871 5873 5878 5881 5883 5883 5882 5881 5880 5872 5875 5866 5873 5873 5872 5873 5872 5871 5871 5870 5864 5858 5858 5848 5845 5844 5844 5829 5826 5821 5825 5821 5816 5817 5816
5836 5837 5840 5842 5844 5847 5852 5859 5862 5861 5865 5868 5871 5874 5875 5872 5871 5871 5867 5870 5865 5868 5868 5868 5868 5869 5867 5866 5864 5864 5863 5857 5851 5846 5839 5833 5835 5825 5821 5818 5822 5813 5806 5802 5803
5831 5830 5836 5837 5840 5842 5846 5853 5854 5855 5858 5862 5866 5867 5868 5868 5861 5868 5858 5861 5863 5863 5865 5862 5863 5863 5862 5861 5858 5857 5856 5852 5847 5842 5837 5831 5826 5818 5819 5815 5816 5808 5802 5804 5770
5826 5827 5831 5832 5835 5838 5841 5844 5845 5847 5854 5857 5860 5862 5863 5865 5865 5865 5867 5856 5861 5859 5861 5859 5858 5856 5857 5857 5852 5850 5850 5846 5840 5835 5832 5826 5823 5812 5811 5812 5813 5809 5803 5796 5792
5822 5822 5824 5826 5829 5831 5833 5836 5839 5841 5848 5850 5853 5856 5857 5857 5858 5859 5861 5853 5857 5854 5854 5853 5853 5851 5851 5850 5847 5846 5843 5839 5834 5829 5826 5822 5816 5813 5808 5810 5804 5802 5795 5793 5790
5816 5816 5818 5817 5821 5824 5828 5830 5831 5834 5838 5842 5846 5849 5851 5850 5851 5854 5853 5838 5842 5841 5848 5849 5847 5845 5844 5843 5841 5838 5835 5833 5829 5825 5820 5816 5813 5810 5804 5801 5799 5797 5793 5791 5790
5812 5813 5814 5814 5817 5820 5822 5823 5824 5828 5831 5835 5838 5842 5844 5844 5845 5844 5834 5834 5828 5842 5841 5843 5842 5839 5839 5837 5833 5831 5829 5827 5823 5819 5815 5810 5807 5805 5800 5792 5790 5791 5790 5790 5790
5804 5807 5809 5812 5813 5814 5817 5812 5816 5822 5825 5830 5833 5836 5839 5842 5833 5831 5828 5833 5834 5835 5837 5836 5834 5832 5832 5830 5828 5826 5823 5820 5818 5814 5811 5807 5804 5800 5797 5791 5784 5784 5782 5780 5780